Regional Weather Roundup
Issued by NWS

Home | Current Version | Previous Version | Graphics & Text | Print | Product List | Glossary On
Versions: 1 2 3 4 5 6 7 8 9 10 11 12 13 14 15 16 17 18 19 20 21 22 23 24 25 26 27 28 29 30 31 32 33 34 35 36 37 38 39 40 41 42 43 44 45 46 47 48 49 50
000
ASUS43 KLMK 271810
RWRKY
KENTUCKY REGIONAL WEATHER ROUNDUP
NATIONAL WEATHER SERVICE LOUISVILLE KY
200 PM EDT FRI MAR 27 2015

NOTE "FAIR" INDICATES FEW OR NO CLOUDS BELOW 12,000 FEET
WITH NO SIGNIFICANT WEATHER AND/OR OBSTRUCTIONS TO VISIBILITY.

KYZ001>023-026-027-061>063-070>075-271900-
WESTERN AND SOUTH CENTRAL KENTUCKY

CITY           SKY/WX    TMP DP  RH WIND       PRES   REMARKS
PADUCAH        CLOUDY    39  31  72 NW14      30.11S WCI  31
HENDERSON      CLOUDY    37  27  65 N12       30.09S WCI  30
OWENSBORO      CLOUDY    39  28  65 N16       30.07S WCI  30
HOPKINSVILLE   CLOUDY    45  31  59 NW12      30.03S
BOWLING GREEN  CLOUDY    46  28  49 NW8       30.01F
GLASGOW        CLOUDY    43  28  54 NW10G16   29.99F
$$

KYZ024-025-028>034-038-045-046-053-271900-
NORTH CENTRAL KENTUCKY

CITY           SKY/WX    TMP DP  RH WIND       PRES   REMARKS
LOUISVILLE/SDF CLOUDY    40  24  53 N14       30.03S WCI  32
LOUISVILLE/LOU CLOUDY    40  22  48 NW9G21    30.03S WCI  34
FORT KNOX      CLOUDY    39  26  60 NW10      30.00S WCI  32
$$

KYZ035>037-039>044-047>052-055>060-089>105-271900-
NORTHEAST KENTUCKY

CITY           SKY/WX    TMP DP  RH WIND       PRES   REMARKS
LEXINGTON      CLOUDY    39  24  55 NW15      29.98S WCI  31
COVINGTON      CLOUDY    34  23  64 N17       30.01R WCI  23
FRANKFORT      CLOUDY    39  24  55 NW12      29.99S WCI  32
$$

KYZ054-064>069-076>088-106>120-271900-
SOUTHEAST KENTUCKY

CITY           SKY/WX    TMP DP  RH WIND       PRES   REMARKS
JACKSON        PTSUNNY   45  26  47 VRB3      29.90F
LONDON         PTSUNNY   46  22  38 VRB3      29.92F
SOMERSET       CLOUDY    43  28  56 N8        29.96S
MIDDLESBORO    CLOUDY    45  29  52 N9        29.92S
MONTICELLO     MOCLDY    47  28  47 NW8       29.98S
$$



USA.gov is the U.S. government's official web portal to all federal, state and local government web resources and services.